FW9489 Weather Reports


Display with metric or nautical units.
time (UTC)temp
F
wind
direction
speed
MPH
gust
MPH
rain 1hr
in
rain 24hr
in
rain mn
in
humidity
%
barometer
mb
20260506231850 76 205 10.0 14.0 0.00 0.00 0.00 44 1014.4
20260506231348 77 197 11.0 13.0 0.00 0.00 0.00 43 1014.5
20260506230845 76 208 10.0 14.0 0.00 0.00 0.00 44 1014.8
20260506230342 76 202 10.0 15.0 0.00 0.00 0.00 43 1014.7
20260506225838 76 190 13.0 16.0 0.00 0.00 0.00 44 1014.7
20260506225336 77 200 9.0 14.0 0.00 0.00 0.00 43 1014.8
20260506224832 77 189 11.0 16.0 0.00 0.00 0.00 42 1014.8
20260506224330 78 186 8.0 13.0 0.00 0.00 0.00 41 1014.9
20260506223826 78 201 6.0 13.0 0.00 0.00 0.00 41 1014.9
20260506223321 77 190 7.0 12.0 0.00 0.00 0.00 41 1015.1
20260506222819 77 190 12.0 14.0 0.00 0.00 0.00 41 1015.0
20260506222314 78 194 10.0 14.0 0.00 0.00 0.00 40 1015.1
20260506221812 79 188 5.0 11.0 0.00 0.00 0.00 39 1015.1
20260506221309 78 196 8.0 13.0 0.00 0.00 0.00 40 1015.1
20260506220807 79 191 9.0 10.0 0.00 0.00 0.00 39 1015.4
20260506220308 77 216 9.0 14.0 0.00 0.00 0.00 40 1015.4
20260506215804 77 180 9.0 14.0 0.00 0.00 0.00 40 1015.4
20260506215300 77 176 4.0 11.0 0.00 0.00 0.00 40 1015.4
20260506214756 77 183 6.0 12.0 0.00 0.00 0.00 40 1015.6
20260506214253 78 180 13.0 15.0 0.00 0.00 0.00 38 1015.5
20260506213752 79 226 6.0 12.0 0.00 0.00 0.00 37 1015.6
20260506213248 77 231 7.0 11.0 0.00 0.00 0.00 38 1015.7
20260506212746 77 191 9.0 11.0 0.00 0.00 0.00 38 1015.7
20260506212241 78 197 13.0 15.0 0.00 0.00 0.00 37 1015.6
20260506211737 77 185 7.0 10.0 0.00 0.00 0.00 39 1015.8
20260506211233 77 197 6.0 10.0 0.00 0.00 0.00 37 1015.9
20260506210731 77 199 12.0 16.0 0.00 0.00 0.00 38 1015.9
20260506210227 78 188 9.0 12.0 0.00 0.00 0.00 38 1016.2
20260506205725 77 207 7.0 8.0 0.00 0.00 0.00 39 1015.9
20260506205220 76 222 10.0 16.0 0.00 0.00 0.00 40 1016.0
20260506204717 76 199 11.0 13.0 0.00 0.00 0.00 39 1016.0
20260506204214 75 208 7.0 15.0 0.00 0.00 0.00 40 1016.1
20260506203712 76 202 11.0 13.0 0.00 0.00 0.00 39 1016.2
20260506203209 76 208 8.0 12.0 0.00 0.00 0.00 40 1016.1
20260506202707 75 210 7.0 9.0 0.00 0.00 0.00 40 1016.2
20260506202203 75 196 11.0 15.0 0.00 0.00 0.00 40 1016.1
20260506201700 74 198 8.0 13.0 0.00 0.00 0.00 40 1016.3
20260506201156 74 190 6.0 13.0 0.00 0.00 0.00 41 1016.4
20260506200653 76 179 5.0 12.0 0.00 0.00 0.00 38 1016.4
20260506200150 75 222 9.0 14.0 0.00 0.00 0.00 40 1016.3
20260506195647 75 180 8.0 13.0 0.00 0.00 0.00 40 1016.5
20260506195143 74 201 8.0 10.0 0.00 0.00 0.00 40 1016.4
20260506194641 74 189 11.0 13.0 0.00 0.00 0.00 41 1016.5
20260506194136 74 204 8.0 13.0 0.00 0.00 0.00 41 1016.6
20260506193635 73 202 4.0 10.0 0.00 0.00 0.00 41 1016.8
20260506193131 74 188 9.0 11.0 0.00 0.00 0.00 41 1016.8
20260506192628 74 200 7.0 13.0 0.00 0.00 0.00 41 1016.6
20260506192124 73 170 8.0 13.0 0.00 0.00 0.00 41 1016.7
20260506191621 75 197 9.0 11.0 0.00 0.00 0.00 39 1016.7
20260506191117 74 203 7.0 9.0 0.00 0.00 0.00 41 1016.8
20260506190615 73 172 5.0 11.0 0.00 0.00 0.00 42 1016.8
20260506190111 74 201 4.0 8.0 0.00 0.00 0.00 41 1016.8
20260506185609 72 209 3.0 12.0 0.00 0.00 0.00 42 1017.0
20260506185104 73 197 6.0 9.0 0.00 0.00 0.00 41 1016.9
20260506184602 72 167 3.0 8.0 0.00 0.00 0.00 42 1017.0
20260506184059 72 152 5.0 8.0 0.00 0.00 0.00 41 1017.2
20260506183555 72 206 9.0 10.0 0.00 0.00 0.00 42 1017.2
20260506183052 71 172 6.0 8.0 0.00 0.00 0.00 42 1017.4
20260506182549 71 196 2.0 11.0 0.00 0.00 0.00 42 1017.5
20260506182046 71 227 2.0 8.0 0.00 0.00 0.00 43 1017.5
20260506181544 71 192 3.0 7.0 0.00 0.00 0.00 42 1017.5
20260506181041 71 155 1.0 6.0 0.00 0.00 0.00 43 1017.4
20260506180537 70 217 6.0 7.0 0.00 0.00 0.00 44 1017.7
20260506180034 70 216 1.0 5.0 0.00 0.00 0.00 45 1017.5
20260506175531 69 167 6.0 6.0 0.00 0.00 0.00 45 1017.7
20260506175027 69 189 6.0 6.0 0.00 0.00 0.00 45 1017.5
20260506174526 68 172 4.0 10.0 0.00 0.00 0.00 46 1017.5
20260506174021 67 164 4.0 9.0 0.00 0.00 0.00 47 1017.8
20260506173519 68 166 2.0 8.0 0.00 0.00 0.00 46 1017.6
20260506173016 66 179 4.0 6.0 0.00 0.00 0.00 48 1017.6
20260506172514 66 357 1.0 4.0 0.00 0.00 0.00 50 1017.7
20260506172009 66 196 4.0 9.0 0.00 0.00 0.00 49 1017.8
20260506171507 66 184 5.0 7.0 0.00 0.00 0.00 50 1017.8
20260506171005 65 89 1.0 7.0 0.00 0.00 0.00 52 1017.8
20260506170502 64 166 0.0 6.0 0.00 0.00 0.00 53 1017.7
20260506165959 64 204 4.0 6.0 0.00 0.00 0.00 53 1017.8
20260506165458 63 207 5.0 8.0 0.00 0.00 0.00 54 1017.8
20260506164954 62 214 7.0 8.0 0.00 0.00 0.00 56 1017.9
20260506164450 62 216 3.0 5.0 0.00 0.00 0.00 56 1017.7
20260506163948 61 185 3.0 6.0 0.00 0.00 0.00 56 1017.9
20260506163443 60 198 2.0 4.0 0.00 0.00 0.00 58 1018.0
20260506162938 60 231 3.0 4.0 0.00 0.00 0.00 59 1018.0
20260506162436 60 212 4.0 6.0 0.00 0.00 0.00 61 1018.0
20260506161933 60 192 2.0 6.0 0.00 0.00 0.00 62 1018.0
20260506161431 59 180 2.0 3.0 0.00 0.00 0.00 63 1018.1
20260506160928 59 156 2.0 4.0 0.00 0.00 0.00 65 1018.0
20260506160426 58 161 2.0 4.0 0.00 0.00 0.00 66 1018.1
20260506155924 57 1 1.0 2.0 0.00 0.00 0.00 68 1017.9
20260506155421 57 154 1.0 3.0 0.00 0.00 0.00 68 1018.0
20260506153542 55 216 0.0 3.0 0.00 0.00 0.00 72 1018.1
20260506153039 54 144 0.0 2.0 0.00 0.00 0.00 74 1018.1
20260506152536 54 192 0.0 2.0 0.00 0.00 0.00 76 1018.1
20260506152035 53 185 0.0 2.0 0.00 0.00 0.00 78 1018.1
20260506151532 52 232 2.0 2.0 0.00 0.00 0.00 78 1018.2
20260506151029 52 207 0.0 1.0 0.00 0.00 0.00 79 1018.1
20260506150525 51 138 1.0 2.0 0.00 0.00 0.00 80 1018.3
20260506150023 51 135 0.0 2.0 0.00 0.00 0.00 81 1018.2
20260506145519 51 138 0.0 2.0 0.00 0.00 0.00 81 1018.2
20260506145017 50 54 0.0 1.0 0.00 0.00 0.00 82 1018.2
20260506144513 50 128 0.0 1.0 0.00 0.00 0.00 84 1018.1
20260506144011 49 89 0.0 1.0 0.00 0.00 0.00 84 1018.1
20260506143508 50 150 0.0 2.0 0.00 0.00 0.00 84 1018.2
20260506143007 49 111 0.0 0.0 0.00 0.00 0.00 85 1018.3
20260506142504 50 7 0.0 0.0 0.00 0.00 0.00 85 1018.2
20260506142002 49 36 0.0 0.0 0.00 0.00 0.00 85 1018.1
20260506141459 49 152 0.0 2.0 0.00 0.00 0.00 85 1018.2
20260506140958 49 2 0.0 0.0 0.00 0.00 0.00 85 1018.3
20260506140454 48 1 1.0 3.0 0.00 0.00 0.00 86 1018.0
20260506135951 48 344 2.0 3.0 0.00 0.00 0.00 86 1018.1
20260506135448 47 339 2.0 3.0 0.00 0.00 0.00 87 1018.1
20260506134944 47 290 0.0 1.0 0.00 0.00 0.00 87 1018.0
20260506134440 47 352 2.0 2.0 0.00 0.00 0.00 89 1018.0
20260506133937 47 311 1.0 1.0 0.00 0.00 0.00 88 1018.1
20260506133435 47 339 3.0 3.0 0.00 0.00 0.00 88 1018.0
20260506132931 47 334 2.0 2.0 0.00 0.00 0.00 88 1018.0
20260506132428 47 284 1.0 2.0 0.00 0.00 0.00 88 1017.9
20260506131926 47 352 2.0 3.0 0.00 0.00 0.00 87 1017.8
20260506131422 47 339 3.0 4.0 0.00 0.00 0.00 87 1017.8
20260506130919 46 339 2.0 4.0 0.00 0.00 0.00 88 1017.8
20260506130415 46 337 4.0 5.0 0.00 0.00 0.00 88 1017.6
20260506125914 46 340 4.0 4.0 0.00 0.00 0.00 87 1017.6
20260506125412 46 339 3.0 4.0 0.00 0.00 0.00 88 1017.9
20260506124910 46 338 2.0 4.0 0.00 0.00 0.00 88 1017.5
20260506124407 46 333 4.0 5.0 0.00 0.00 0.00 88 1017.7
20260506123905 46 338 2.0 3.0 0.00 0.00 0.00 90 1017.6
20260506123402 46 343 3.0 4.0 0.00 0.00 0.00 90 1017.5
20260506122900 46 336 2.0 2.0 0.00 0.00 0.00 90 1017.4
20260506122356 46 334 2.0 3.0 0.00 0.00 0.00 91 1017.5
20260506121855 46 328 3.0 3.0 0.00 0.00 0.00 90 1017.5
20260506121351 46 337 2.0 3.0 0.00 0.00 0.00 90 1017.5
20260506120848 46 338 3.0 3.0 0.00 0.00 0.00 89 1017.6
20260506120346 46 351 2.0 3.0 0.00 0.00 0.00 89 1017.3
20260506115843 46 342 2.0 2.0 0.00 0.00 0.00 88 1017.4
20260506115341 46 338 2.0 2.0 0.00 0.00 0.00 89 1017.3
20260506114839 46 331 2.0 2.0 0.00 0.00 0.00 89 1017.5
20260506114336 46 328 1.0 2.0 0.00 0.00 0.00 88 1017.3
20260506113835 47 335 2.0 4.0 0.00 0.00 0.00 88 1017.3
20260506113332 47 336 2.0 3.0 0.00 0.00 0.00 88 1017.2
20260506112828 47 334 2.0 3.0 0.00 0.00 0.00 88 1017.3
20260506112326 47 339 2.0 4.0 0.00 0.00 0.00 88 1017.2
20260506111823 47 333 2.0 2.0 0.00 0.00 0.00 89 1017.3
20260506111321 47 340 2.0 2.0 0.00 0.00 0.00 88 1017.3
20260506110818 47 334 2.0 3.0 0.00 0.00 0.00 89 1017.3
20260506110315 47 328 2.0 2.0 0.00 0.00 0.00 87 1017.3
20260506105812 47 194 0.0 2.0 0.00 0.00 0.00 89 1017.2
20260506105309 47 354 1.0 2.0 0.00 0.00 0.00 89 1017.0
20260506104806 48 349 2.0 2.0 0.00 0.00 0.00 88 1016.9
20260506104304 48 341 0.0 0.0 0.00 0.00 0.00 87 1017.0
20260506103801 48 344 2.0 3.0 0.00 0.00 0.00 86 1017.3
20260506103259 48 352 2.0 4.0 0.00 0.00 0.00 86 1017.0
20260506102756 48 345 2.0 4.0 0.00 0.00 0.00 87 1017.0
20260506102254 48 354 2.0 4.0 0.00 0.00 0.00 86 1017.4
20260506101750 48 349 1.0 2.0 0.00 0.00 0.00 87 1017.2
20260506101247 48 1 2.0 4.0 0.00 0.00 0.00 86 1017.2
20260506100745 48 359 2.0 4.0 0.00 0.00 0.00 87 1017.0
20260506100243 48 354 2.0 3.0 0.00 0.00 0.00 87 1017.3
20260506095741 48 357 2.0 3.0 0.00 0.00 0.00 87 1017.2
20260506095238 48 358 1.0 2.0 0.00 0.00 0.00 88 1017.2
20260506094734 48 335 2.0 2.0 0.00 0.00 0.00 88 1017.3
20260506094233 48 346 1.0 2.0 0.00 0.00 0.00 87 1017.3
20260506093731 48 352 0.0 2.0 0.00 0.00 0.00 87 1017.4
20260506093228 49 5 2.0 2.0 0.00 0.00 0.00 85 1017.2
20260506092726 49 325 1.0 2.0 0.00 0.00 0.00 85 1017.2
20260506092223 49 2 2.0 2.0 0.00 0.00 0.00 85 1017.4
20260506091720 49 354 2.0 2.0 0.00 0.00 0.00 85 1017.4
20260506091218 49 6 2.0 4.0 0.00 0.00 0.00 85 1017.5
20260506090716 49 6 2.0 2.0 0.00 0.00 0.00 85 1017.3
20260506090212 49 335 1.0 2.0 0.00 0.00 0.00 87 1017.3
20260506085709 49 355 2.0 2.0 0.00 0.00 0.00 87 1017.3
20260506085205 49 2 2.0 2.0 0.00 0.00 0.00 86 1017.2
20260506084702 50 2 2.0 2.0 0.00 0.00 0.00 85 1017.2
20260506084158 50 350 1.0 2.0 0.00 0.00 0.00 83 1017.3
20260506083655 50 353 2.0 3.0 0.00 0.00 0.00 84 1017.5
20260506083153 49 353 1.0 2.0 0.00 0.00 0.00 84 1017.5
20260506082651 50 336 1.0 2.0 0.00 0.00 0.00 85 1017.3
20260506082150 50 34 0.0 1.0 0.00 0.00 0.00 84 1017.5
20260506081649 50 10 1.0 2.0 0.00 0.00 0.00 84 1017.3
20260506081146 50 349 2.0 3.0 0.00 0.00 0.00 84 1017.5
20260506080644 50 11 2.0 3.0 0.00 0.00 0.00 83 1017.4
20260506080140 50 0 2.0 3.0 0.00 0.00 0.00 82 1017.6
20260506073124 51 12 2.0 3.0 0.00 0.00 0.00 81 1017.4
20260506072621 51 1 2.0 4.0 0.00 0.00 0.00 80 1017.5
20260506072119 51 358 2.0 2.0 0.00 0.00 0.00 82 1017.5
20260506071617 51 357 0.0 1.0 0.00 0.00 0.00 81 1017.4
20260506071114 51 12 1.0 3.0 0.00 0.00 0.00 80 1017.2
20260506070611 51 353 2.0 3.0 0.00 0.00 0.00 80 1017.2
20260506070108 51 13 1.0 2.0 0.00 0.00 0.00 80 1016.9
20260506062045 52 335 0.0 2.0 0.00 0.02 0.02 81 1016.4
20260506061541 52 346 2.0 2.0 0.00 0.02 0.02 80 1016.5
20260506061038 52 359 2.0 2.0 0.00 0.02 0.02 81 1016.3
20260506060537 52 21 1.0 2.0 0.00 0.02 0.02 81 1016.5
20260506051006 53 0 2.0 3.0 0.00 0.02 0.02 76 1016.1
20260506050503 54 346 2.0 2.0 0.00 0.02 0.02 78 1016.2
20260506044954 54 349 2.0 2.0 0.00 0.02 0.02 77 1015.9
20260506044452 54 349 2.0 2.0 0.00 0.02 0.02 76 1015.8
20260506043948 55 356 2.0 3.0 0.00 0.02 0.02 76 1015.7
20260506043445 55 345 2.0 2.0 0.00 0.02 0.02 75 1015.6
20260506042943 55 348 2.0 4.0 0.00 0.02 0.02 74 1015.5
20260506042443 55 341 3.0 3.0 0.00 0.02 0.02 74 1015.6
20260506041940 55 343 2.0 2.0 0.00 0.02 0.02 74 1015.3
20260506041438 55 344 2.0 2.0 0.00 0.02 0.02 74 1015.2
20260506040935 56 353 1.0 3.0 0.00 0.02 0.02 73 1015.2
20260506040432 56 324 2.0 2.0 0.00 0.02 0.02 73 1015.1
20260506035928 56 319 2.0 2.0 0.00 0.02 0.02 73 1015.2
20260506035426 56 355 2.0 3.0 0.00 0.02 0.02 72 1015.1
20260506034922 56 242 0.0 2.0 0.00 0.02 0.02 73 1015.0
20260506034420 56 343 2.0 2.0 0.00 0.02 0.02 73 1015.0
20260506033916 56 331 2.0 3.0 0.00 0.02 0.02 72 1014.9
20260506033414 57 341 2.0 3.0 0.00 0.02 0.02 72 1014.9
20260506032911 57 329 2.0 2.0 0.00 0.02 0.02 71 1014.8
20260506032408 57 336 2.0 3.0 0.00 0.02 0.02 71 1014.8
20260506031904 57 326 2.0 3.0 0.00 0.02 0.02 70 1014.7
20260506031401 57 264 1.0 2.0 0.00 0.02 0.02 70 1014.7
20260506030859 57 315 0.0 2.0 0.00 0.02 0.02 69 1014.4
20260506030357 58 292 1.0 2.0 0.00 0.02 0.02 69 1014.3
20260506025853 58 293 2.0 2.0 0.00 0.02 0.02 69 1014.1
20260506025350 58 258 2.0 2.0 0.00 0.02 0.02 69 1014.2
20260506024847 58 353 1.0 2.0 0.00 0.02 0.02 69 1014.1
20260506024344 58 321 1.0 2.0 0.00 0.02 0.02 68 1014.0
20260506023840 58 276 3.0 5.0 0.00 0.02 0.02 67 1014.0
20260506023337 58 292 2.0 5.0 0.00 0.02 0.02 67 1014.0
20260506022834 59 217 6.0 9.0 0.00 0.02 0.02 66 1013.7
20260506022332 59 218 5.0 6.0 0.00 0.02 0.02 66 1013.7
20260506021830 59 216 4.0 8.0 0.00 0.02 0.02 65 1013.8
20260506021326 59 206 5.0 7.0 0.00 0.02 0.02 65 1013.7
20260506020823 59 185 7.0 13.0 0.00 0.02 0.02 64 1013.7
20260506020321 60 193 9.0 15.0 0.00 0.02 0.02 64 1013.5
20260506015818 60 213 10.0 15.0 0.00 0.02 0.02 63 1013.5
20260506015316 61 194 12.0 15.0 0.00 0.02 0.02 63 1013.4
20260506014812 61 188 6.0 16.0 0.00 0.02 0.02 62 1013.3
20260506014309 61 212 12.0 14.0 0.00 0.02 0.02 61 1013.3
20260506013806 62 197 15.0 17.0 0.00 0.02 0.02 61 1013.2
20260506013303 62 180 10.0 15.0 0.00 0.02 0.02 61 1013.1
20260506012759 62 187 12.0 12.0 0.00 0.02 0.02 60 1013.3
20260506012256 62 184 9.0 13.0 0.00 0.02 0.02 61 1013.2
20260506011754 62 192 8.0 13.0 0.00 0.02 0.02 60 1013.3
20260506011250 62 191 7.0 12.0 0.00 0.02 0.02 59 1013.4
20260506010748 62 182 7.0 11.0 0.00 0.02 0.02 58 1013.1
20260506010245 63 198 7.0 13.0 0.00 0.02 0.02 57 1013.3
20260506005742 63 197 9.0 11.0 0.00 0.02 0.02 58 1013.2
20260506005239 63 218 9.0 12.0 0.00 0.02 0.02 58 1013.2
20260506004735 63 193 9.0 13.0 0.00 0.02 0.02 57 1013.0
20260506004233 63 191 5.0 9.0 0.00 0.02 0.02 57 1013.1
20260506003728 63 217 6.0 14.0 0.00 0.02 0.02 57 1013.1
20260506003225 63 181 9.0 16.0 0.00 0.02 0.02 57 1013.1
20260506002721 63 188 9.0 16.0 0.00 0.02 0.02 56 1012.9
20260506002217 64 187 6.0 11.0 0.00 0.02 0.02 55 1012.8
20260506001713 64 152 7.0 15.0 0.00 0.02 0.02 54 1013.0
20260506001211 64 181 7.0 11.0 0.00 0.02 0.02 55 1012.8
20260506000708 65 183 9.0 13.0 0.00 0.02 0.02 53 1012.7
20260506000206 65 200 8.0 13.0 0.00 0.02 0.02 53 1012.8
20260505235703 66 181 8.0 14.0 0.00 0.02 0.02 52 1012.4
20260505235200 64 216 13.0 15.0 0.00 0.02 0.02 55 1012.6
20260505234657 64 180 9.0 15.0 0.00 0.02 0.02 54 1012.5
20260505234154 67 205 10.0 17.0 0.00 0.02 0.02 51 1012.8
20260505233650 66 200 13.0 20.0 0.00 0.02 0.02 52 1012.4
20260505233148 66 228 9.0 17.0 0.00 0.02 0.02 51 1012.7
20260505232646 66 196 12.0 18.0 0.00 0.02 0.02 51 1012.5